Home > Weather > Manaus > Past weeks

Flag for Brazil Past Weather in Manaus, Amazonas, Brazil — Yesterday and Last 2 Weeks

Now
90 °F

Scattered clouds.


Feels Like: 96 °F
Forecast: 75 / 94 °F
Wind: 7 mph from Southeast

Location: Manaus Aeroporto

Current Time: Jul 29, 2016 at 1:57:23 PM

Latest Report: Jul 29, 2016 at 1:00 PM


Visibility: N/A

Pressure: 29.89 "Hg

Humidity: 55%

Dew Point: 72 °F

Location of ManausLocation

Past Weather in Manaus — Graph

°F

Manaus Temperature Yesterday

Maximum temperature yesterday: 91 °F (at 1:00 PM)
Minimum temperature yesterday: 77 °F (at 5:00 AM)
Average temperature yesterday: 84 °F

High & Low Weather Summary for the Past Weeks

 TemperatureHumidityPressure
High93 °F (Jul 17, 2:00 PM)100% (Jul 19, 2:00 PM)30.01 "Hg (Jul 19, 2:00 PM)
Low72 °F (Jul 20, 5:00 AM)41% (Jul 15, 4:00 PM)29.80 "Hg (Jul 15, 3:00 PM)
Average82 °F72%29.90 "Hg
* Reported Jul 14 12:00 PM — Jul 29 12:00 PM, Manaus, Weather by CustomWeather, © 2016

Note: Actual official high and low records may vary slightly from our data, if they occured in-between our weather recording intervals... More about our weather records

Advertising

Manaus Weather History for the Previous 24 Hours

Scroll right to see more
 ConditionsComfort  
Time TempWeatherWind HumidityBarometerVisibility
12:00 PM
Fri, Jul 29
90 °FPassing clouds.6 mph55%29.89 "HgN/A
11:00 AM90 °FSunny.6 mph55%29.92 "Hg10 mi
10:00 AM88 °FSunny.6 mph59%29.92 "Hg10 mi
9:00 AM86 °FSunny.3 mph59%29.92 "Hg10 mi
8:00 AM84 °FSunny.5 mph62%29.92 "Hg10 mi
7:00 AM79 °FSunny.6 mph70%29.89 "Hg10 mi
6:00 AM77 °FPassing clouds.5 mph74%29.89 "HgN/A
5:00 AM77 °FClear.5 mph74%29.86 "Hg10 mi
4:00 AM79 °FClear.6 mph70%29.86 "Hg10 mi
3:00 AM79 °FClear.6 mph74%29.86 "Hg10 mi
2:00 AM81 °FClear.5 mph100%29.95 "Hg10 mi
1:00 AM81 °FClear.31 mph74%29.89 "Hg10 mi
12:00 AM81 °FClear.5 mph74%29.89 "Hg10 mi
11:00 PM
Thu, Jul 28
82 °FClear.5 mph70%29.89 "Hg10 mi
10:00 PM82 °FClear.6 mph66%29.89 "Hg10 mi
9:00 PM82 °FClear.3 mph66%29.89 "Hg10 mi
8:00 PM82 °FClear.5 mph66%29.86 "Hg10 mi
7:00 PM84 °FClear.5 mph58%29.83 "Hg10 mi
6:00 PM86 °FPassing clouds.2 mph55%29.80 "HgN/A
5:00 PM90 °FPassing clouds.5 mph49%29.80 "HgN/A
4:00 PM91 °FPassing clouds.6 mph44%29.80 "HgN/A
3:00 PM91 °FPassing clouds.7 mph46%29.83 "HgN/A
2:00 PM91 °FPassing clouds.6 mph46%29.86 "HgN/A
1:00 PM91 °FPassing clouds.8 mph49%29.89 "HgN/A
Weather by CustomWeather, © 2016

See weather overviewHow to use our weather pages